User: anonymous   Login
Location: Bowman Observatory
(41.0326°N, 73.6210°W)
Time: 04:08:41
(UTC-04:00)
Language:

Cosmos 2297 - Orbit

View from above orbital plane
View from above orbital plane
View from above satellite
View from above satellite

Ground track
Ground track

The orbit data is extracted from the following two-line orbital elements,

1 23404U 94077A   17081.66154371 -.00000308 +00000-0 -13837-3 0  9998
2 23404 071.0121 114.1094 0018593 279.2085 080.6934 14.13494489151808
Epoch (UTC): 22 March 2017 15:52:37
Eccentricity: 0.0018593
inclination: 71.0121°
perigee height: 834 km
apogee height: 861 km
right ascension of ascending node: 114.1094°
argument of perigee: 279.2085°
revolutions per day: 14.13494489
mean anomaly at epoch: 80.6934°
orbit number at epoch: 15180

The dashed part of the orbit path shows where the satellite is in the earth's shadow,  

DLR